Weather History for Lambertville, MI

Change the Weather History Date:

Saturday, November 12, 2011

  Actual Average (KTOL) Record (KTOL)
Temperature  
Mean Temperature 48 °F 43 °F  
Max Temperature 60 °F 52 °F 72 °F (1964)
Min Temperature 35 °F 35 °F 15 °F (1976)
Degree Days  
Heating Degree Days 18 22  
Month to date heating degree days 239  
Since 1 July heating degree days 765  
Cooling Degree Days 0 0  
Month to date cooling degree days 0  
Year to date cooling degree days 793  
Moisture  
Dew Point 32 °F    
Average Humidity 54    
Maximum Humidity 75    
Minimum Humidity 36    
Precipitation  
Precipitation 0.00 in 0.10 in 1.22 in (1992)
Month to date precipitation 1.08  
Year to date precipitation 29.78  
Snow  
Snow 0.00 in 0.00 in - ()
Month to date snowfall 0.4  
Since 1 July snowfall 0.6  
Since 1 September snowfall 0.6  
Snow Depth -    
Sea Level Pressure  
Sea Level Pressure 29.86 in    
Wind  
Wind Speed 9 mph (SSW)    
Max Wind Speed 17 mph    
Max Gust Speed 23 mph    
Visibility 10 miles    
Events      
T = Trace of Precipitation, MM = Missing Value Source: NWS Daily Summary

Daily Weather History Graph

Daily Weather History Graph

Search for Another Location

Airport:

Trip Planner

Search our weather history database for the weather conditions in past years. The results will help you decide how hot, cold, wet, or windy it might be!

Date:

Astronomy

Nov. 12, 2011 Rise Set
Actual Time 7:19 AM EST 5:17 PM EST
Civil Twilight 6:50 AM EST 5:46 PM EST
Nautical Twilight 6:16 AM EST 6:20 PM EST
Astronomical Twilight 5:44 AM EST 6:52 PM EST
Moon 6:30 PM EST (11/12) 9:02 AM EST (11/12)
Length of Visible Light 10h 56m
Length of Day
9h 57m
Full, 97% of the Moon is Illuminated
Nov 12
Full
Nov 18
Last Quarter
Nov 25
New
Dec 2
First Quarter
Dec 10
Full

Hourly Weather History & Observations

Time (EST) Temp. Windchill Dew Point Humidity Pressure Visibility Wind Dir Wind Speed Gust Speed Precip Events Conditions
12:15 AM 35.6 °F 29.9 °F 28.4 °F 75% 29.84 in 10.0 mi South 6.9 mph - N/A   Clear
12:55 AM 35.6 °F 30.7 °F 26.6 °F 70% 29.84 in 10.0 mi South 5.8 mph - N/A   Clear
1:15 AM 35.6 °F 32.8 °F 26.6 °F 70% 29.83 in 10.0 mi South 3.5 mph - N/A   Clear
1:35 AM 35.6 °F 32.8 °F 26.6 °F 70% 29.83 in 10.0 mi South 3.5 mph - N/A   Clear
1:55 AM 35.6 °F 30.7 °F 26.6 °F 70% 29.82 in 10.0 mi South 5.8 mph - N/A   Clear
2:15 AM 35.6 °F 30.7 °F 26.6 °F 70% 29.82 in 10.0 mi South 5.8 mph - N/A   Clear
2:35 AM 35.6 °F 29.9 °F 26.6 °F 70% 29.81 in 10.0 mi SSW 6.9 mph - N/A   Clear
2:55 AM 35.6 °F 29.9 °F 28.4 °F 75% 29.81 in 10.0 mi South 6.9 mph - N/A   Clear
3:15 AM 35.6 °F 29.9 °F 28.4 °F 75% 29.81 in 10.0 mi SSW 6.9 mph - N/A   Clear
3:35 AM 35.6 °F 29.9 °F 28.4 °F 75% 29.81 in 10.0 mi SSW 6.9 mph - N/A   Clear
3:55 AM 37.4 °F 32.1 °F 28.4 °F 70% 29.81 in 10.0 mi SW 6.9 mph - N/A   Clear
4:15 AM 37.4 °F 30.8 °F 28.4 °F 70% 29.80 in 10.0 mi SSW 9.2 mph - N/A   Clear
5:15 AM 37.4 °F 31.4 °F 30.2 °F 75% 29.82 in 10.0 mi SSW 8.1 mph - N/A   Clear
5:35 AM 41.0 °F 35.8 °F 30.2 °F 65% 29.82 in 10.0 mi SW 8.1 mph - N/A   Clear
5:55 AM 41.0 °F 35.8 °F 30.2 °F 65% 29.82 in 10.0 mi SW 8.1 mph - N/A   Clear
6:15 AM 41.0 °F 34.7 °F 32.0 °F 70% 29.83 in 10.0 mi SW 10.4 mph 16.1 mph N/A   Clear
6:35 AM 41.0 °F 34.7 °F 32.0 °F 70% 29.83 in 10.0 mi SW 10.4 mph - N/A   Clear
7:15 AM 41.0 °F 35.2 °F 32.0 °F 70% 29.85 in 10.0 mi SW 9.2 mph 16.1 mph N/A   Clear
7:35 AM 41.0 °F 34.7 °F 32.0 °F 70% 29.86 in 10.0 mi WSW 10.4 mph 16.1 mph N/A   Clear
7:55 AM 42.8 °F 37.0 °F 32.0 °F 66% 29.86 in 10.0 mi WSW 10.4 mph - N/A   Clear
8:15 AM 42.8 °F 37.5 °F 32.0 °F 66% 29.86 in 10.0 mi SW 9.2 mph 16.1 mph N/A   Clear
8:35 AM 44.6 °F 38.8 °F 32.0 °F 61% 29.87 in 10.0 mi WSW 11.5 mph 18.4 mph N/A   Clear
8:55 AM 46.4 °F 41.1 °F 32.0 °F 57% 29.87 in 10.0 mi WSW 11.5 mph 19.6 mph N/A   Clear
9:15 AM 46.4 °F 40.7 °F 33.8 °F 62% 29.88 in 10.0 mi WSW 12.7 mph 18.4 mph N/A   Clear
9:35 AM 48.2 °F - 33.8 °F 58% 29.88 in 10.0 mi WSW 15.0 mph 23.0 mph N/A   Clear
9:55 AM 50.0 °F - 33.8 °F 54% 29.88 in 10.0 mi SW 16.1 mph 21.9 mph N/A   Clear
10:15 AM 50.0 °F - 33.8 °F 54% 29.89 in 10.0 mi SW 15.0 mph 21.9 mph N/A   Clear
10:35 AM 51.8 °F - 33.8 °F 50% 29.90 in 10.0 mi SW 13.8 mph 19.6 mph N/A   Clear
10:55 AM 51.8 °F - 33.8 °F 50% 29.90 in 10.0 mi SW 9.2 mph 18.4 mph N/A   Clear
11:15 AM 53.6 °F - 33.8 °F 47% 29.90 in 10.0 mi SW 13.8 mph 19.6 mph N/A   Clear
11:35 AM 53.6 °F - 33.8 °F 47% 29.90 in 10.0 mi WSW 13.8 mph 21.9 mph N/A   Clear
11:55 AM 55.4 °F - 33.8 °F 44% 29.89 in 10.0 mi SW 8.1 mph - N/A   Clear
12:15 PM 55.4 °F - 33.8 °F 44% 29.88 in 10.0 mi WSW 12.7 mph 19.6 mph N/A   Clear
12:35 PM 57.2 °F - 33.8 °F 41% 29.88 in 10.0 mi WSW 12.7 mph 17.3 mph N/A   Clear
12:55 PM 59.0 °F - 35.6 °F 42% 29.87 in 10.0 mi SW 6.9 mph - N/A   Clear
1:15 PM 59.0 °F - 33.8 °F 39% 29.87 in 10.0 mi WSW 8.1 mph 19.6 mph N/A   Clear
1:35 PM 59.0 °F - 33.8 °F 39% 29.87 in 10.0 mi SW 11.5 mph 19.6 mph N/A   Clear
1:55 PM 60.8 °F - 33.8 °F 36% 29.87 in 10.0 mi SSW 8.1 mph - N/A   Clear
2:15 PM 60.8 °F - 33.8 °F 36% 29.87 in 10.0 mi SW 13.8 mph 23.0 mph N/A   Clear
2:35 PM 60.8 °F - 33.8 °F 36% 29.87 in 10.0 mi SW 17.3 mph 20.7 mph N/A   Clear
2:55 PM 59.0 °F - 33.8 °F 39% 29.87 in 10.0 mi SW 15.0 mph 23.0 mph N/A   Clear
3:15 PM 59.0 °F - 33.8 °F 39% 29.87 in 10.0 mi SW 9.2 mph 16.1 mph N/A   Clear
3:35 PM 59.0 °F - 33.8 °F 39% 29.87 in 10.0 mi SW 10.4 mph - N/A   Clear
3:55 PM 59.0 °F - 33.8 °F 39% 29.87 in 10.0 mi SSW 9.2 mph - N/A   Clear
4:15 PM 59.0 °F - 33.8 °F 39% 29.87 in 10.0 mi SSW 8.1 mph 16.1 mph N/A   Clear
4:35 PM 59.0 °F - 33.8 °F 39% 29.87 in 10.0 mi SSW 9.2 mph 16.1 mph N/A   Clear
4:55 PM 57.2 °F - 35.6 °F 44% 29.87 in 5.0 mi SSW 6.9 mph 16.1 mph N/A   Haze
5:15 PM 55.4 °F - 35.6 °F 47% 29.87 in 10.0 mi SSW 8.1 mph - N/A   Clear
5:35 PM 55.4 °F - 35.6 °F 47% 29.87 in 10.0 mi SSW 8.1 mph - N/A   Clear
5:55 PM 55.4 °F - 35.6 °F 47% 29.87 in 7.0 mi SSW 9.2 mph - N/A   Clear
6:15 PM 55.4 °F - 33.8 °F 44% 29.87 in 10.0 mi SSW 10.4 mph - N/A   Clear
6:35 PM 55.4 °F - 33.8 °F 44% 29.87 in 10.0 mi SSW 10.4 mph - N/A   Clear
6:55 PM 55.4 °F - 33.8 °F 44% 29.87 in 10.0 mi South 8.1 mph - N/A   Clear
7:15 PM 53.6 °F - 33.8 °F 47% 29.87 in 10.0 mi South 8.1 mph 16.1 mph N/A   Clear
7:35 PM 53.6 °F - 33.8 °F 47% 29.87 in 10.0 mi South 12.7 mph 17.3 mph N/A   Clear
7:55 PM 53.6 °F - 33.8 °F 47% 29.87 in 10.0 mi South 10.4 mph 17.3 mph N/A   Clear
8:35 PM 51.8 °F - 33.8 °F 50% 29.86 in 10.0 mi South 10.4 mph - N/A   Clear
8:55 PM 51.8 °F - 33.8 °F 50% 29.85 in 10.0 mi South 6.9 mph - N/A   Clear
9:15 PM 51.8 °F - 33.8 °F 50% 29.85 in 10.0 mi South 8.1 mph - N/A   Clear
9:35 PM 51.8 °F - 33.8 °F 50% 29.84 in 10.0 mi South 9.2 mph - N/A   Clear
9:55 PM 51.8 °F - 32.0 °F 47% 29.84 in 10.0 mi South 10.4 mph - N/A   Clear
10:35 PM 53.6 °F - 32.0 °F 44% 29.82 in 10.0 mi South 12.7 mph 19.6 mph N/A   Clear
10:55 PM 53.6 °F - 32.0 °F 44% 29.82 in 10.0 mi South 11.5 mph 19.6 mph N/A   Clear
11:15 PM 53.6 °F - 32.0 °F 44% 29.81 in 10.0 mi South 12.7 mph 17.3 mph N/A   Clear
11:35 PM 53.6 °F - 32.0 °F 44% 29.81 in 10.0 mi South 10.4 mph 18.4 mph N/A   Clear
11:55 PM 53.6 °F - 32.0 °F 44% 29.81 in 10.0 mi South 11.5 mph 19.6 mph N/A   Clear